Home   Weather   Amsterdam   Past weeks
Flag for Netherlands

Past Weather in Amsterdam, Netherlands — Yesterday and Last 2 Weeks

Now
54 °F

Low clouds.


Feels Like: 49 °F
Forecast: 62 / 46 °F
Wind: 17 mph from Northwest

Location: Amsterdam Schiphol Airport

Current Time: May 21, 2019 at 6:56:51 pm

Latest Report: May 21, 2019 at 5:55 pm


Visibility: N/A

Pressure: 30.01 "Hg

Humidity: 88%

Dew Point: 50 °F

Location of AmsterdamLocation

Past Weather in Amsterdam — Graph

°F

Amsterdam Temperature Yesterday

Maximum temperature yesterday: 59 °F (at 2:25 pm)
Minimum temperature yesterday: 52 °F (at 2:25 am)
Average temperature yesterday: 54 °F

High & Low Weather Summary for the Past Weeks

 TemperatureHumidityPressure
High68 °F (May 18, 1:55 pm)100% (May 7, 4:55 am)30.74 "Hg (May 7, 4:55 am)
Low39 °F (May 7, 4:25 am)34% (May 15, 2:55 pm)29.33 "Hg (May 8, 4:55 pm)
Average52 °F75%30.00 "Hg
* Reported May 6 5:25 pm — May 21 5:25 pm, Amsterdam. Weather by CustomWeather, © 2019

Note: Actual official high and low records may vary slightly from our data, if they occured in-between our weather recording intervals... More about our weather records

Advertising

Amsterdam Weather History for the Previous 24 Hours

Scroll right to see more
 ConditionsComfort  
Time TempWeatherWind HumidityBarometerVisibility
5:25 pm
Tue, May 21
54 °FMostly cloudy.17 mph88%30.01 "HgN/A
4:55 pm54 °FMostly cloudy.17 mph88%30.01 "HgN/A
4:25 pm54 °FMore clouds than sun.17 mph88%30.01 "HgN/A
3:55 pm54 °FMostly cloudy.20 mph88%29.98 "HgN/A
3:25 pm54 °FCloudy.18 mph88%29.98 "HgN/A
2:55 pm54 °FLow clouds.16 mph88%29.98 "HgN/A
1:55 pm55 °FLow clouds.15 mph88%29.98 "HgN/A
1:25 pm54 °FLow clouds.16 mph94%29.98 "HgN/A
12:55 pm54 °FMore clouds than sun.15 mph94%29.95 "HgN/A
12:25 pm54 °FLow clouds.18 mph88%29.95 "HgN/A
11:55 am54 °FLow clouds.16 mph88%29.95 "HgN/A
11:25 am54 °FLow clouds.20 mph88%29.95 "HgN/A
10:55 am54 °FLow clouds.15 mph94%29.95 "HgN/A
10:25 am54 °FLow clouds.18 mph88%29.92 "HgN/A
9:55 am54 °FLow clouds.16 mph94%29.92 "HgN/A
9:25 am54 °FMostly cloudy.17 mph94%29.92 "Hg5 mi
8:55 am52 °FMostly cloudy.17 mph100%29.92 "Hg4 mi
8:25 am54 °FLow clouds.15 mph94%29.92 "Hg4 mi
7:55 am52 °FFog.14 mph100%29.89 "Hg3 mi
7:25 am52 °FDrizzle. Fog.16 mph100%29.89 "Hg3 mi
6:55 am52 °FFog.17 mph100%29.89 "Hg2 mi
6:25 am52 °FFog.15 mph100%29.89 "Hg2 mi
5:55 am52 °FFog.18 mph94%29.89 "Hg2 mi
5:25 am52 °FFog.15 mph100%29.89 "Hg2 mi
4:55 am52 °FFog.15 mph100%29.86 "Hg1 mi
4:25 am52 °FFog.13 mph100%29.86 "Hg1 mi
3:55 am52 °FFog.13 mph100%29.86 "Hg2 mi
3:25 am52 °FFog.16 mph100%29.86 "Hg1 mi
2:55 am52 °FFog.13 mph100%29.86 "Hg1 mi
2:25 am54 °FFog.13 mph94%29.86 "Hg1 mi
1:55 am54 °FFog.13 mph94%29.86 "Hg2 mi
1:25 am54 °FFog.14 mph94%29.86 "Hg3 mi
12:55 am54 °FFog.15 mph94%29.86 "Hg2 mi
12:25 am54 °FFog.15 mph94%29.86 "Hg2 mi
11:55 pm
Mon, May 20
52 °FFog.14 mph100%29.86 "Hg2 mi
11:25 pm52 °FFog.15 mph100%29.86 "Hg2 mi
10:55 pm52 °FFog.12 mph100%29.86 "Hg1 mi
10:25 pm52 °FFog.13 mph100%29.86 "Hg2 mi
9:55 pm52 °FFog.15 mph100%29.86 "Hg1 mi
9:25 pm52 °FFog.15 mph100%29.83 "Hg2 mi
8:55 pm54 °FFog.14 mph94%29.83 "Hg2 mi
8:25 pm54 °FFog.15 mph94%29.83 "Hg3 mi
7:55 pm55 °FMostly cloudy.14 mph94%29.83 "Hg4 mi
7:25 pm54 °FBroken clouds.15 mph94%29.83 "Hg4 mi
6:55 pm55 °FMostly cloudy.14 mph88%29.83 "Hg5 mi
6:25 pm55 °FMore clouds than sun.15 mph88%29.80 "Hg6 mi
Weather by CustomWeather, © 2019

See weather overview